Theta_e
341 342 343 343 343 344 343 344 343 345 344 343 342 341 340 339 341 343 343 343 340 334 338 342 341 334 318 322 334 332 325 320 318 313 312 326 337 338 338 338 339 339 340 339 338 339 337 337 336 335 337 340 341 341 341 341 342 341 341 341 341 341 341 339 335 328 328 331 332 332 331 330 330 330 329 329 330 330 330 331 331 332 332 333 334
341 341 343 342 343 344 343 343 342 343 343 342 341 340 340 339 340 342 343 343 342 339 342 343 341 334 318 324 332 327 323 322 319 316 311 316 326 335 338 337 339 339 339 340 339 339 339 339 338 338 339 340 341 342 341 342 342 341 341 341 341 341 340 337 330 326 330 333 333 333 332 331 330 329 328 330 330 329 329 330 331 331 332 332 333
340 341 342 342 342 343 343 343 341 341 341 341 340 340 339 338 338 340 343 343 343 342 343 342 340 333 318 324 329 324 324 324 321 318 315 312 313 326 336 336 339 340 339 340 339 339 339 339 339 339 340 341 341 341 341 341 342 341 341 341 341 340 339 335 327 326 330 334 335 334 334 332 332 331 330 331 330 331 331 330 330 331 332 332 331
340 341 342 342 341 342 342 342 341 341 341 340 339 339 338 336 335 339 343 343 344 343 343 342 341 331 318 322 324 323 325 325 324 321 318 315 310 315 329 336 337 338 339 339 339 339 339 339 339 340 340 341 341 341 341 341 341 341 341 341 341 340 339 333 326 327 330 334 336 335 335 334 333 333 332 332 332 331 331 331 331 330 331 331 331
341 341 341 342 341 342 342 342 342 342 342 341 339 338 337 335 334 338 342 343 344 343 343 343 340 329 318 321 321 322 325 326 326 323 320 318 314 311 319 332 336 336 338 339 339 339 339 339 338 339 340 341 341 341 341 341 341 340 341 341 340 341 338 330 327 329 330 334 335 335 335 334 334 332 332 332 331 329 328 331 332 332 332 332 332
341 341 342 340 340 341 340 342 342 342 343 341 339 338 337 335 334 337 341 342 343 343 344 343 339 331 321 319 319 322 325 327 327 326 324 320 317 312 311 324 335 336 336 338 339 338 338 338 338 339 339 340 340 340 340 340 340 340 340 340 340 340 335 330 329 329 330 335 335 335 335 335 334 333 332 331 331 329 328 331 332 332 332 332 331
341 341 341 340 340 340 338 341 341 342 342 339 338 338 337 335 333 335 340 341 342 343 343 341 339 335 326 320 320 323 326 329 329 327 326 324 320 315 310 318 333 337 335 337 338 338 337 337 337 338 338 338 339 339 339 339 340 340 340 340 340 338 334 332 331 330 332 336 335 335 336 336 335 334 333 332 332 331 331 331 331 331 331 331 331
341 341 341 340 340 338 334 335 336 338 339 337 336 337 337 335 333 334 340 341 341 343 342 340 338 337 332 323 321 326 329 331 331 330 328 327 323 317 313 313 326 336 336 335 338 337 337 336 336 337 337 338 337 338 338 339 339 340 340 340 339 336 334 334 333 332 335 337 336 336 336 336 336 335 333 331 331 330 330 330 330 329 329 329 330
341 341 340 340 340 337 332 330 328 328 331 335 335 336 336 335 333 332 338 341 341 342 341 340 339 339 334 324 324 330 333 334 334 332 330 328 326 320 316 312 317 332 336 334 337 337 336 336 335 336 336 337 337 336 337 338 339 339 340 339 337 336 335 334 334 335 337 337 337 337 337 336 336 334 331 329 328 327 328 329 328 328 328 328 329
342 341 340 341 340 337 335 334 332 328 325 329 334 335 335 334 333 332 336 340 341 341 341 341 339 339 335 327 328 333 335 336 336 334 332 330 329 324 318 314 314 327 335 334 336 336 336 336 335 335 335 336 336 335 335 336 338 338 339 338 336 336 336 335 335 336 337 338 337 337 336 336 336 334 331 330 329 328 328 328 328 328 328 328 329
342 341 340 341 340 337 336 337 336 336 330 323 328 332 333 334 333 332 336 340 341 341 342 341 340 340 337 333 333 335 336 338 337 335 333 331 331 327 321 316 313 322 332 335 335 335 335 335 335 335 335 335 335 335 335 336 337 338 338 337 336 336 336 336 336 338 338 338 338 336 335 336 336 334 331 331 331 330 328 327 327 328 329 329 329
342 342 341 341 340 336 335 337 336 339 337 327 323 323 326 331 333 332 336 340 341 341 342 342 340 340 338 337 337 337 338 338 338 337 334 333 332 329 324 317 314 317 327 333 334 335 335 334 335 335 334 335 335 335 335 336 336 337 337 336 336 336 335 336 337 339 339 338 338 337 336 336 336 334 332 331 331 331 331 329 327 328 330 330 329
342 342 340 342 339 336 335 337 337 339 340 336 328 324 323 326 330 331 335 340 341 341 341 341 339 339 339 338 339 338 339 339 339 337 334 334 333 331 326 318 315 315 320 330 333 334 334 332 333 334 334 334 334 335 335 336 337 337 337 337 336 335 335 336 338 339 339 339 338 337 337 337 336 334 332 332 332 332 332 332 329 327 328 329 329
342 342 341 342 339 337 337 336 338 339 340 339 335 332 327 323 327 331 336 339 340 341 341 340 338 339 340 340 340 339 340 340 339 338 335 335 334 332 327 317 316 316 316 326 332 333 334 333 331 331 332 334 334 334 335 336 337 337 337 337 337 336 336 336 338 339 339 339 338 337 337 337 336 334 334 334 334 334 333 332 330 328 327 327 328
341 342 341 341 340 339 338 337 338 340 341 339 336 334 326 321 328 330 336 340 340 340 339 338 337 340 342 342 341 340 340 340 340 339 336 336 335 333 327 319 316 316 315 325 332 332 333 333 331 330 330 332 332 333 335 335 336 336 336 337 337 337 337 337 338 338 338 338 338 338 338 338 336 335 335 336 336 334 334 333 331 330 328 327 327
341 342 341 341 340 340 340 338 339 340 340 336 332 331 324 322 330 332 337 340 340 340 338 336 335 339 342 342 341 341 340 340 340 339 338 337 336 333 327 322 320 317 314 321 330 331 332 332 332 331 329 330 331 332 334 335 336 336 336 336 337 337 337 338 338 338 338 338 338 338 338 338 336 336 337 337 337 335 334 333 333 332 330 328 328
341 341 341 341 340 340 341 340 341 339 333 328 328 331 329 328 332 335 339 340 340 340 338 335 335 338 341 342 341 340 340 340 340 339 339 337 335 333 327 323 322 318 313 315 320 326 330 331 332 332 331 329 329 331 333 334 335 336 336 336 337 337 337 337 338 339 338 338 338 338 339 338 336 337 338 337 336 336 335 334 334 333 332 330 329
341 342 341 341 342 341 341 341 339 330 323 325 330 333 334 333 334 337 340 341 341 341 339 336 335 337 339 341 341 341 340 340 340 340 338 337 336 334 329 324 323 320 313 311 312 321 330 330 330 331 331 331 329 329 330 333 334 335 335 336 336 336 336 336 337 338 338 338 338 339 339 338 337 337 338 338 337 336 336 335 335 334 333 332 330
341 342 341 341 342 342 342 340 333 327 327 332 334 332 333 336 337 339 340 341 342 342 340 338 337 336 338 341 342 341 341 340 340 340 338 337 336 335 331 326 324 321 316 312 311 316 325 328 328 330 330 331 331 329 329 330 332 334 335 335 335 334 334 335 336 337 338 337 337 338 338 337 337 336 337 338 337 336 336 336 335 335 334 333 331
341 341 341 341 341 342 342 339 332 332 335 336 336 333 334 337 339 340 341 342 342 342 342 340 338 337 338 341 341 341 341 340 341 340 339 338 336 335 333 328 324 322 319 315 313 312 315 318 321 326 329 330 330 329 328 328 330 332 333 334 334 334 334 335 335 336 336 336 336 337 337 337 336 336 337 337 337 337 337 337 336 336 335 334 332
340 340 341 341 341 341 341 339 334 335 337 336 336 336 337 339 340 341 342 342 342 343 342 341 339 338 339 340 341 342 341 340 340 340 339 338 337 335 333 330 325 323 321 318 317 315 314 315 315 319 326 330 330 329 328 327 328 329 331 332 333 333 333 334 334 334 335 335 335 336 336 335 335 336 336 337 337 337 337 337 337 336 336 335 334
339 339 340 341 342 341 341 340 336 335 336 336 336 337 339 339 340 341 342 343 342 343 342 342 341 340 340 341 342 341 341 341 340 340 340 338 337 336 333 332 328 323 323 321 320 319 319 320 319 317 321 325 326 324 326 327 327 327 328 330 331 332 332 333 333 333 333 333 334 334 334 334 335 335 336 336 336 337 337 336 336 336 336 336 335
339 339 339 340 341 341 341 341 339 336 334 334 335 337 338 338 339 340 341 342 342 342 342 342 342 342 342 342 341 341 341 341 340 340 340 338 337 336 334 333 330 325 324 324 323 322 322 323 324 323 321 322 323 323 323 324 326 326 327 328 329 330 331 332 332 332 332 332 332 332 332 333 334 335 335 335 335 336 336 336 336 336 336 336 336
339 339 339 339 340 341 341 341 341 338 336 334 333 335 336 337 338 339 340 340 341 341 341 342 341 341 341 341 341 341 341 341 340 340 339 338 337 337 335 333 332 328 326 327 326 325 326 326 326 326 326 326 326 326 323 321 322 322 324 325 326 327 328 330 331 331 332 331 331 331 332 332 333 333 333 334 334 334 335 335 335 335 335 335 335
339 339 339 339 339 340 341 341 340 340 339 337 335 335 335 336 337 337 338 339 340 340 339 340 340 341 340 340 341 341 340 340 340 340 339 338 337 336 335 334 334 331 328 329 330 328 329 330 329 328 329 329 328 327 325 324 321 319 319 321 322 323 324 327 329 330 331 331 330 330 331 331 331 331 331 331 332 332 333 334 334 334 334 334 335
338 338 339 339 338 339 340 340 340 339 340 339 338 337 336 337 337 337 337 338 339 339 339 339 339 340 340 340 341 340 340 339 339 340 339 339 337 336 335 335 335 333 330 330 332 331 330 331 330 330 330 329 329 328 327 327 325 322 320 318 317 318 318 321 325 328 329 330 330 330 330 331 330 330 330 330 330 330 330 331 332 333 333 334 334
338 338 338 338 338 338 339 339 339 340 339 339 339 339 338 337 337 337 337 338 338 338 339 339 339 339 339 340 339 340 339 338 338 338 339 339 338 337 336 335 335 334 332 331 330 330 331 331 331 330 330 329 329 329 328 327 326 325 323 321 318 316 315 314 318 324 327 329 329 328 329 330 330 330 329 329 329 329 328 328 329 330 332 333 333
338 338 338 338 338 338 339 339 339 339 339 338 339 339 338 338 338 338 338 338 338 338 339 338 339 339 338 338 338 338 338 338 339 338 339 339 338 337 336 335 335 335 334 332 330 330 330 330 330 330 330 329 329 329 328 328 327 325 325 325 323 321 319 316 315 317 321 325 327 327 328 329 329 329 329 328 328 328 328 327 326 327 329 330 331
337 338 338 337 338 338 339 339 338 338 339 339 339 338 337 338 338 338 338 338 338 338 337 337 337 337 337 337 337 337 337 337 338 338 339 338 337 337 336 335 334 334 334 333 332 330 329 329 330 330 330 329 329 329 329 329 328 327 327 326 326 324 322 322 321 320 320 322 324 324 325 327 328 328 328 328 327 327 326 326 325 325 325 327 328
338 338 338 338 337 337 339 339 338 338 338 338 338 338 337 337 337 337 336 337 338 337 336 336 336 336 336 335 335 335 336 336 337 337 338 338 338 337 336 335 335 334 334 334 333 332 330 329 329 329 329 329 329 329 329 329 329 328 327 327 327 326 324 325 326 326 325 324 323 321 319 323 326 327 327 325 324 322 322 322 323 323 323 323 324
338 339 338 338 338 337 339 339 338 338 338 338 338 338 337 336 336 336 335 335 335 336 335 334 335 335 335 335 335 334 335 335 334 335 336 337 336 336 336 335 334 333 334 334 333 332 331 331 329 329 329 329 329 329 330 330 330 329 328 327 327 327 326 326 326 327 327 327 326 322 317 319 322 324 324 323 322 322 321 320 320 320 320 321 321
337 338 338 338 338 337 338 339 339 339 338 337 337 338 337 336 336 336 335 335 334 334 333 333 333 334 335 335 335 335 335 334 334 335 335 335 334 336 335 335 334 332 334 335 333 332 331 330 329 329 329 329 329 330 330 330 330 331 330 329 329 328 327 328 328 328 328 328 327 326 324 322 322 323 324 325 326 326 325 324 323 322 321 321 322
337 338 337 338 337 336 336 337 338 338 338 337 337 337 337 336 336 335 335 334 334 333 333 333 333 333 334 334 334 334 334 335 335 335 335 334 335 335 334 334 334 333 333 335 335 333 331 330 329 328 329 329 329 330 330 330 331 331 331 331 331 330 330 329 329 329 329 329 328 329 328 328 327 327 327 328 328 328 328 328 327 327 326 326 326
337 337 337 337 337 337 336 336 336 337 337 337 337 336 336 336 335 335 334 333 333 333 333 333 333 333 333 334 334 334 333 333 333 333 333 334 335 335 334 334 333 333 333 334 334 332 331 331 330 328 328 329 329 330 331 331 331 331 332 331 331 331 331 331 331 331 330 330 330 330 329 329 329 329 329 329 329 329 329 329 329 329 329 329 329
336 336 336 336 336 336 336 336 336 336 337 336 336 335 335 335 335 334 333 333 333 333 333 333 333 333 333 333 333 333 333 332 331 331 333 334 335 335 335 333 333 333 333 332 333 332 331 331 329 328 328 329 330 330 331 331 331 331 332 332 332 332 332 332 333 333 332 332 331 331 331 331 331 331 331 330 331 331 330 330 330 330 330 330 330
332 336 335 335 336 335 335 334 334 334 335 336 335 335 335 334 334 334 333 332 332 332 332 333 333 333 333 333 332 332 333 333 333 334 335 335 335 336 336 334 334 334 333 333 332 331 331 329 328 327 328 329 330 330 330 330 330 330 331 332 333 333 333 333 333 333 332 331 331 331 331 330 331 331 332 332 331 331 331 330 330 330 331 331 331
325 332 333 334 334 334 333 332 332 332 332 335 336 335 335 334 333 334 333 333 332 331 331 332 333 332 332 333 333 333 332 332 332 331 332 334 335 335 336 335 334 333 332 332 331 331 330 329 327 327 328 328 329 329 330 330 330 331 332 333 333 333 333 333 334 333 332 331 330 330 330 329 330 330 331 331 331 332 331 329 329 329 331 332 331
317 326 332 334 334 334 331 326 327 331 331 332 335 334 334 333 333 333 333 333 332 331 331 331 332 332 332 332 332 333 332 331 331 330 329 333 334 334 334 334 333 333 332 331 331 330 329 327 327 327 327 328 328 330 331 332 332 332 333 333 333 333 333 334 333 333 332 331 331 330 330 330 330 331 330 330 330 331 330 329 328 329 330 330 329
315 320 326 327 328 329 327 324 326 332 333 331 333 332 332 332 333 333 333 332 331 331 331 330 331 331 331 332 332 332 331 332 334 333 332 332 332 330 331 332 332 332 331 330 330 328 327 327 327 328 328 328 329 331 333 333 333 333 333 333 333 333 333 333 332 332 332 332 332 331 332 331 331 332 331 329 329 330 329 327 327 327 327 325 325
317 316 317 316 317 317 318 321 325 331 333 333 333 332 331 331 332 333 333 332 331 331 330 329 330 330 330 330 331 331 331 332 333 335 334 333 332 330 331 333 332 331 330 329 329 327 327 327 327 328 329 330 330 332 333 333 333 333 332 332 333 332 332 332 332 332 332 330 330 331 331 331 331 331 331 330 330 329 326 325 324 324 323 322 322
318 317 316 314 314 313 314 316 319 328 333 333 334 334 332 332 331 332 333 332 332 331 330 330 330 330 330 330 330 330 330 330 330 332 332 331 330 329 330 331 330 329 329 328 328 327 327 328 329 329 330 331 332 332 333 332 332 332 332 333 333 333 332 332 332 332 331 330 331 332 332 331 330 331 331 330 328 326 324 323 322 322 323 322 321
317 317 317 317 315 315 315 315 317 323 330 333 334 334 334 333 333 332 333 332 332 332 331 330 330 330 330 330 330 329 330 330 329 329 329 330 330 329 329 330 330 329 328 328 328 328 329 329 330 331 331 332 333 332 332 332 332 332 333 333 332 331 332 332 332 331 331 332 333 332 332 332 331 330 330 328 325 324 323 322 322 322 323 322 322
315 314 316 318 317 316 316 316 317 318 323 330 333 334 333 333 333 333 333 332 330 330 331 329 329 328 328 328 328 328 328 329 329 329 329 330 331 331 330 330 330 330 329 328 329 329 331 331 331 332 333 333 332 332 332 332 332 333 333 332 330 329 331 332 332 331 331 331 332 332 331 330 329 328 328 327 325 325 325 323 323 323 323 323 324
313 314 315 317 316 316 317 317 318 318 320 326 331 333 333 332 332 331 331 330 327 326 326 326 325 324 324 325 325 325 325 326 327 328 328 329 330 330 330 330 330 330 330 330 330 331 331 331 332 333 333 333 333 333 333 332 332 332 332 331 330 329 329 330 331 331 331 331 331 331 330 328 328 328 327 327 327 327 327 326 324 324 324 324 325
312 313 313 315 316 316 317 317 318 319 320 324 329 332 331 330 329 327 325 324 323 322 322 322 322 322 321 321 321 322 322 323 324 325 326 326 327 328 329 330 331 331 331 331 332 332 331 332 332 333 333 333 332 332 332 331 331 332 332 330 329 328 328 329 330 329 329 329 329 329 328 328 329 329 329 329 329 328 328 327 325 325 325 325 325
310 311 312 313 315 314 315 317 319 321 322 324 328 331 330 329 327 324 322 320 317 317 319 318 317 318 318 317 318 318 318 319 320 321 322 323 323 325 326 327 329 330 330 331 331 332 331 332 333 333 333 332 332 331 331 331 331 332 332 331 330 330 329 330 329 328 328 329 329 329 329 329 330 329 329 329 329 329 329 328 326 325 325 325 325
309 310 310 311 312 312 313 316 319 321 323 325 328 329 328 328 326 323 321 321 316 312 314 314 313 314 313 312 312 313 313 314 314 315 317 318 319 320 321 322 323 325 326 327 328 328 328 328 330 332 333 332 332 331 331 332 331 331 331 331 332 331 331 331 330 329 330 329 330 330 330 329 330 329 329 329 329 329 329 328 327 326 325 325 325
308 307 307 308 308 309 310 312 315 319 322 325 326 328 328 327 324 320 317 318 316 311 309 309 310 311 310 308 307 308 308 308 308 309 311 312 312 314 316 317 318 318 319 320 322 323 323 323 325 328 330 330 331 330 330 331 331 331 331 331 331 330 331 332 331 330 330 330 330 329 330 330 329 329 329 328 328 328 328 327 327 326 326 326 325
305 305 305 305 306 307 308 309 310 313 318 321 322 324 326 326 323 319 314 313 313 310 307 306 305 306 306 306 305 305 305 305 305 306 306 306 307 309 310 312 313 313 314 314 314 316 318 319 320 322 324 325 327 327 329 329 329 329 330 330 330 330 330 331 331 331 330 330 330 328 330 329 328 328 328 327 327 327 326 326 326 325 325 325 325
304 304 304 304 304 305 306 306 306 309 312 314 315 316 320 321 320 319 314 309 308 306 304 304 304 304 304 304 304 304 304 304 304 304 304 304 304 305 305 307 308 309 310 310 310 310 311 313 315 316 317 318 320 322 324 325 326 327 327 328 329 329 329 329 329 329 328 329 329 328 329 328 327 327 326 326 326 326 325 325 324 324 324 324 323
302 302 302 302 303 304 304 304 304 306 307 308 310 311 313 314 314 315 313 308 306 305 304 303 303 303 303 303 303 303 302 303 303 303 303 303 303 303 303 304 304 305 305 306 307 307 307 308 309 310 310 312 313 315 317 319 320 322 324 324 326 326 327 327 327 327 326 327 327 327 326 326 326 325 325 325 324 324 323 323 323 322 322 322 322
Wind_Speed
22 24 24 27 26 24 25 27 26 24 25 26 26 26 25 23 22 21 20 22 25 26 24 23 23 21 21 20 19 19 20 19 18 17 16 16 15 15 15 14 14 15 16 16 16 16 15 15 15 15 14 13 13 13 13 14 15 15 17 19 18 20 20 20 19 18 18 18 19 18 18 17 16 16 16 17 17 17 17 17 15 14 15 14 13
27 26 25 26 27 25 24 26 27 25 26 28 28 26 25 23 21 20 20 22 25 26 23 23 23 22 21 20 19 20 21 19 17 18 18 17 15 15 15 14 14 14 16 16 16 16 15 15 14 14 13 13 13 13 15 15 16 17 19 20 19 20 20 20 18 18 19 20 20 19 18 18 18 17 17 17 17 17 16 16 14 13 13 12 13
27 26 26 27 28 26 24 25 28 27 27 29 28 26 25 23 22 21 20 21 24 24 22 23 24 23 22 20 20 21 20 19 17 18 18 17 15 15 15 15 14 14 15 16 16 15 15 15 14 13 13 14 14 14 15 15 16 18 18 19 19 19 19 18 17 18 20 20 19 19 17 16 16 16 16 16 16 16 15 15 14 13 13 12 12
27 26 25 27 28 27 26 25 28 27 27 28 28 27 25 24 22 21 20 21 22 23 24 24 24 23 23 21 20 21 20 18 17 17 17 17 16 14 15 15 14 13 14 15 15 15 14 14 14 13 13 13 14 14 14 15 16 18 18 18 19 18 17 17 17 17 20 21 18 16 16 15 15 14 14 13 14 14 14 13 13 13 13 12 12
26 25 25 27 26 27 27 26 27 27 26 27 28 27 26 24 22 21 21 22 23 23 24 23 23 23 23 21 20 20 19 18 16 15 16 16 16 14 15 15 14 12 13 14 14 14 14 14 13 13 12 13 13 13 14 15 16 17 17 17 17 17 16 16 16 16 19 20 18 15 15 14 14 14 13 12 12 12 13 13 12 13 13 12 11
25 24 25 26 25 26 28 27 26 26 26 27 29 28 26 25 22 21 21 22 23 23 23 22 23 23 22 22 21 20 18 17 15 14 14 14 14 14 14 16 15 12 12 13 14 14 14 13 13 13 12 12 12 13 13 14 15 14 15 17 15 15 16 15 14 15 17 18 16 14 14 14 13 12 11 11 11 11 13 13 11 11 12 11 11
23 24 24 26 24 26 28 27 26 26 26 28 30 28 27 25 23 21 21 22 22 22 22 23 23 22 22 22 21 19 18 16 15 13 13 13 13 13 13 16 16 13 11 13 13 13 13 12 12 12 12 12 12 12 12 13 14 14 14 15 14 15 15 13 12 12 15 14 12 12 13 12 11 11 10 10 10 10 11 11 10 9 10 10 10
22 23 24 24 24 27 29 28 27 26 26 28 30 29 28 26 25 22 21 22 22 21 22 23 23 22 21 22 21 19 18 16 15 13 12 12 12 12 12 14 16 14 11 12 13 12 12 11 11 11 11 11 11 12 12 12 13 14 13 14 14 14 13 11 11 11 13 10 9 11 11 11 11 10 10 10 10 9 9 10 11 10 10 10 10
22 22 23 23 23 27 28 28 28 27 27 28 29 28 28 26 25 24 22 22 22 21 22 23 22 22 21 22 22 19 18 16 14 13 11 11 11 11 11 11 14 16 11 11 12 12 11 11 11 11 10 11 10 11 12 12 12 13 13 13 13 13 11 10 10 10 10 8 9 9 9 10 10 10 10 10 10 9 9 9 10 10 11 10 9
23 21 22 21 22 28 27 27 26 26 27 29 29 28 28 27 26 25 23 22 22 22 22 23 23 22 21 21 21 19 18 16 14 13 12 11 10 10 10 10 12 16 13 10 10 11 11 11 10 10 10 10 10 11 12 12 11 12 12 12 12 12 10 9 10 9 7 7 8 8 10 11 8 9 11 10 10 11 12 10 10 10 11 11 8
22 21 21 19 22 28 28 26 25 24 24 27 29 28 28 27 26 25 23 22 22 22 23 23 23 23 22 21 20 19 17 16 14 13 12 10 10 9 9 9 10 15 16 12 10 9 11 11 10 10 10 9 10 11 11 11 11 11 10 11 11 10 10 8 8 6 6 7 7 8 10 11 8 8 10 11 11 11 12 11 11 11 12 8 4
22 21 20 18 23 28 27 26 25 23 23 26 27 27 27 27 27 26 24 23 23 23 23 24 24 23 22 22 20 19 17 16 14 13 12 10 9 8 8 8 9 12 16 16 12 10 10 11 11 9 9 10 10 11 10 10 10 10 9 9 10 10 9 8 7 5 6 6 6 7 6 7 6 7 9 10 10 11 11 11 10 11 11 5 3
21 20 19 19 24 28 27 25 25 23 23 25 27 26 26 27 28 27 25 24 24 24 24 24 24 23 22 22 20 20 18 16 15 13 12 10 9 8 7 8 9 9 12 16 13 10 10 9 10 10 10 9 10 10 9 9 9 9 9 9 9 9 8 8 7 5 6 6 6 6 5 5 5 6 8 8 9 9 9 8 7 8 9 6 6
20 19 19 19 24 28 27 25 25 24 23 24 26 27 25 27 30 29 26 24 25 25 25 25 24 23 22 21 21 20 19 17 15 14 12 10 9 8 7 8 9 8 10 16 14 10 10 9 10 10 10 10 9 9 8 8 8 9 9 8 8 8 8 7 6 5 5 5 5 5 5 4 4 5 6 5 5 5 5 5 4 6 6 5 7
20 19 19 19 24 27 26 25 24 24 23 23 25 26 26 28 31 30 27 25 26 26 25 24 23 22 21 21 20 20 19 17 15 14 13 11 9 7 6 8 9 8 10 16 15 10 9 9 9 9 9 9 9 8 7 7 7 8 8 8 8 8 8 6 5 5 5 5 5 5 5 4 3 4 4 4 3 3 4 4 3 5 4 4 6
19 19 19 19 23 25 25 24 24 23 22 22 23 25 27 30 32 30 27 26 27 27 26 25 24 23 22 21 20 20 19 18 16 14 13 11 9 7 6 8 9 8 9 14 16 12 9 7 7 7 8 9 9 8 8 8 7 7 8 8 8 8 8 6 5 5 5 5 4 4 4 4 2 3 4 4 5 4 4 4 2 2 2 3 4
18 19 20 21 22 24 24 22 23 21 20 22 23 24 27 30 31 29 27 26 28 29 28 26 25 24 22 20 19 20 19 18 17 14 13 11 9 7 6 7 8 8 8 11 14 15 11 8 7 7 7 8 8 9 9 8 8 8 8 8 8 8 8 7 4 4 4 4 5 5 4 4 3 3 4 4 5 5 5 5 3 1 0 1 2
17 18 20 22 22 22 22 20 20 19 19 21 23 25 26 28 29 28 26 25 27 28 28 28 26 25 22 20 20 19 19 19 18 15 13 11 9 7 6 7 7 7 7 8 11 15 15 10 10 9 8 7 7 9 9 9 9 8 8 8 7 7 7 7 5 4 4 4 5 5 4 5 5 5 5 4 5 6 6 6 5 4 3 2 1
17 18 19 22 22 22 21 19 20 19 19 19 21 26 27 27 26 25 24 24 25 26 28 28 27 25 23 21 20 20 20 20 18 16 14 12 9 7 6 6 6 7 8 7 8 13 16 14 13 13 10 7 6 9 10 10 9 9 9 8 7 6 5 5 4 4 4 4 5 4 5 6 6 6 6 6 5 6 7 7 6 6 6 5 4
17 19 19 20 23 25 24 21 21 21 19 18 20 25 27 25 24 23 23 24 24 25 27 27 26 25 23 22 21 20 19 19 19 17 15 13 10 8 6 6 6 7 7 7 8 9 12 12 12 15 14 9 7 9 10 10 9 9 9 8 8 6 5 4 4 4 3 5 5 5 6 7 7 7 7 7 7 7 8 7 8 7 8 7 7
16 18 19 19 21 25 25 23 22 21 19 18 20 23 25 25 23 22 22 22 22 24 26 26 26 25 23 22 21 20 19 19 19 18 16 14 11 9 7 5 5 6 7 7 8 8 9 8 8 13 16 13 11 11 10 10 9 9 9 9 9 6 6 6 4 4 4 5 5 5 7 7 7 8 8 9 9 9 9 8 8 8 9 9 9
15 17 19 20 22 24 25 24 24 24 20 20 21 20 23 24 22 22 21 20 21 22 24 24 24 24 23 22 21 19 18 19 19 18 17 14 12 10 7 5 4 5 7 6 6 7 8 8 8 9 12 13 13 11 11 12 10 10 10 10 9 7 8 9 7 6 6 6 6 7 8 8 8 9 9 10 10 10 10 10 9 9 10 11 10
14 17 19 20 22 23 24 23 24 26 23 22 22 20 21 22 20 20 20 20 21 21 21 22 22 21 21 21 19 16 17 19 19 18 17 14 12 11 8 5 4 4 6 5 5 5 6 6 6 7 7 8 8 7 10 13 12 12 11 11 11 10 11 11 9 8 8 8 8 8 9 9 9 9 9 10 10 10 10 10 10 10 10 11 10
14 16 17 20 22 21 21 22 23 26 25 23 23 21 21 20 18 18 18 19 20 20 20 21 19 19 20 20 19 17 17 19 19 18 17 15 13 11 8 6 4 4 6 6 5 4 4 4 4 4 4 4 5 5 6 9 11 12 13 12 13 13 14 13 11 9 9 11 11 11 10 10 9 9 10 10 10 10 9 9 9 9 9 10 10
14 16 17 20 22 21 22 22 23 25 25 24 23 22 21 20 18 18 18 18 18 17 18 19 18 18 18 17 17 18 18 18 19 20 18 16 14 12 9 8 6 5 6 6 6 5 5 5 4 4 4 4 5 4 4 5 7 9 11 13 14 14 15 15 13 12 11 11 13 13 12 11 11 10 10 11 11 10 10 10 10 9 9 9 10
13 15 17 19 20 22 23 23 22 23 24 24 23 21 22 21 19 20 20 18 17 17 17 18 17 18 19 17 17 18 18 17 17 18 18 16 15 13 11 9 8 7 7 7 7 6 6 6 6 5 5 5 5 4 4 4 4 6 8 10 12 13 15 16 15 14 12 11 14 15 14 13 12 12 12 12 12 12 12 11 11 10 10 10 10
13 14 16 17 20 23 23 23 23 22 23 23 20 20 21 21 20 20 21 20 18 18 18 17 16 16 18 18 19 19 18 16 16 17 18 18 17 14 12 11 9 9 8 8 7 7 6 6 6 6 6 5 5 5 4 4 4 5 5 7 9 10 12 14 15 15 14 13 16 18 16 15 14 13 13 13 13 13 13 13 12 12 12 11 11
14 14 15 17 20 23 24 25 25 24 23 21 18 19 20 18 18 18 19 20 18 17 16 16 17 17 17 17 19 20 19 18 17 18 19 19 18 15 14 12 11 10 8 7 7 7 7 6 6 6 5 5 5 5 5 5 5 5 5 6 6 8 9 10 12 14 15 14 16 19 18 17 16 15 15 14 14 14 14 14 14 14 13 13 12
16 15 15 16 19 22 24 26 25 26 26 23 20 20 20 18 17 17 17 18 18 17 17 17 17 18 18 18 18 19 19 19 19 19 19 20 19 15 14 13 12 11 10 8 7 7 7 7 6 6 6 6 6 6 6 5 5 6 6 6 6 7 8 8 9 10 12 13 14 18 19 18 17 17 16 15 15 15 15 15 15 15 14 14 14
18 16 16 16 17 21 24 25 24 25 26 25 22 22 21 19 19 19 18 19 17 17 17 18 18 18 19 19 19 19 19 19 20 20 20 21 20 16 15 15 14 13 12 11 9 7 7 7 6 6 6 6 6 6 6 6 6 6 6 7 6 7 9 9 9 9 10 10 11 15 17 17 17 17 16 16 16 16 17 17 16 16 15 15 15
17 16 17 17 16 18 22 23 22 23 25 26 25 25 22 19 19 19 18 19 19 18 18 19 18 18 18 18 18 19 19 19 20 20 19 21 21 19 17 16 17 17 16 15 14 11 9 8 7 7 7 7 7 7 7 6 6 7 7 9 8 8 10 9 10 10 10 10 9 11 13 13 15 16 16 16 16 15 15 16 16 15 15 15 15
17 18 19 18 17 19 21 21 21 23 25 26 27 27 23 19 17 17 19 19 19 20 20 20 19 18 18 18 18 17 17 18 20 20 19 20 20 19 18 18 20 19 18 17 17 16 12 11 10 9 9 8 8 7 7 7 7 7 7 8 8 8 10 10 10 11 10 10 10 9 10 11 12 13 13 13 13 12 12 13 13 14 14 15 15
18 20 19 18 20 21 23 23 22 23 25 24 25 26 23 20 17 16 20 20 19 19 19 19 18 18 18 18 18 19 19 18 19 20 19 19 19 18 18 19 21 20 19 18 18 18 16 14 14 13 11 9 9 8 7 7 8 8 7 7 7 7 9 10 10 10 11 11 10 10 10 10 11 12 12 12 12 12 12 12 12 13 13 13 14
17 17 19 21 22 23 26 27 25 25 26 24 23 25 24 22 21 18 19 21 19 19 19 18 17 17 18 19 18 18 20 20 20 21 20 21 20 17 16 18 19 19 20 19 18 19 17 16 16 14 12 10 10 9 8 8 8 9 8 7 7 7 8 10 11 11 11 11 11 11 12 12 12 13 14 14 13 13 13 14 14 14 14 14 15
19 17 19 21 22 25 27 27 27 25 26 27 25 27 25 21 22 21 20 21 20 19 18 17 16 16 17 19 20 19 20 21 22 22 23 23 21 18 17 16 18 18 18 19 19 18 16 14 14 13 11 10 10 9 9 9 8 9 8 8 8 8 9 10 12 11 11 12 12 13 14 14 14 15 16 16 16 16 15 15 16 16 16 16 17
21 20 18 18 20 26 28 26 27 26 23 26 27 29 26 20 19 20 20 20 19 19 18 16 17 17 16 18 19 21 21 21 20 20 22 23 21 20 19 15 15 18 19 19 19 16 14 12 12 12 11 11 10 9 9 9 9 10 10 10 10 10 10 12 13 12 12 13 14 16 16 16 16 15 16 17 17 18 17 17 17 18 18 18 19
20 22 20 19 20 23 25 22 25 28 27 26 26 29 29 23 20 19 19 19 19 19 18 17 16 17 18 18 18 19 21 21 20 21 22 22 19 19 20 17 16 19 19 18 17 15 13 13 13 13 13 11 11 10 10 9 9 9 10 11 12 12 12 12 13 13 15 16 16 17 17 17 17 16 17 17 18 19 20 20 20 20 21 21 21
19 20 21 20 20 19 19 17 19 26 28 29 27 27 29 27 23 20 18 18 19 19 18 17 17 17 17 18 19 18 20 23 23 23 23 22 19 19 20 19 20 20 19 18 16 14 14 14 14 13 13 12 11 11 10 9 8 8 10 12 13 13 13 12 13 14 16 18 18 18 19 19 19 19 18 19 20 21 21 21 22 23 23 23 22
20 18 18 18 18 18 19 19 20 23 25 28 30 29 29 28 25 22 19 17 19 20 19 17 17 18 18 17 17 17 18 21 22 23 23 20 19 21 22 22 21 20 20 19 16 15 15 15 14 13 13 12 12 10 9 9 11 11 12 13 13 14 14 13 14 15 17 19 20 21 21 22 22 21 20 20 20 20 20 20 19 20 20 19 18
21 20 18 17 17 18 18 20 22 24 24 25 29 29 28 27 24 23 21 19 20 21 21 18 17 18 18 17 16 17 17 19 20 20 21 20 18 19 19 19 21 20 20 20 17 17 16 16 16 15 14 13 12 12 10 11 14 13 12 13 14 14 15 15 16 16 17 18 18 19 19 20 20 21 20 19 19 18 16 15 15 15 15 15 14
21 22 21 21 20 19 19 20 21 24 26 26 27 27 26 25 25 25 23 21 22 21 20 19 19 19 20 20 19 20 18 17 19 19 21 22 21 21 19 19 21 21 21 20 18 18 17 16 16 15 15 13 12 12 11 11 12 11 11 13 14 14 14 16 16 16 16 16 14 14 14 16 17 18 18 17 15 13 12 12 14 14 14 14 15
21 24 25 25 24 22 22 22 21 23 26 28 27 27 27 26 25 25 23 21 22 22 20 19 20 21 22 23 23 24 22 19 20 20 22 24 23 23 22 19 18 19 20 20 19 19 18 17 16 15 15 14 13 12 11 11 10 9 8 9 11 12 11 12 13 13 13 12 11 10 11 13 14 14 14 14 12 11 12 13 14 15 14 15 16
21 24 26 28 27 25 25 24 24 24 24 26 27 27 27 26 24 23 23 21 18 19 20 19 17 18 18 20 20 21 23 22 22 22 22 23 24 25 25 21 18 18 19 20 21 20 18 17 18 17 15 13 14 15 14 12 10 9 7 7 7 6 6 8 8 9 9 8 9 10 11 11 11 11 12 12 12 12 14 15 15 15 15 16 17
22 25 26 28 28 28 28 27 27 26 25 25 27 27 25 24 22 21 22 20 16 15 17 16 15 13 13 14 14 14 15 16 19 20 20 21 23 25 27 25 21 19 20 20 20 19 18 19 20 20 18 16 15 15 15 14 12 10 7 5 5 5 5 4 4 6 8 9 9 10 10 10 10 10 12 13 13 14 14 15 15 15 16 17 18
23 26 28 29 29 29 29 29 29 28 27 26 27 27 24 21 19 17 16 16 15 15 16 15 14 13 11 11 10 9 8 8 10 12 13 14 15 18 21 21 19 19 21 22 21 20 21 23 23 22 22 20 17 15 14 14 15 14 10 7 5 5 5 3 4 6 7 8 9 10 9 10 10 10 12 13 13 14 14 14 15 15 16 17 18
22 26 29 29 29 28 28 29 29 29 29 28 28 28 26 23 22 21 20 21 20 17 18 18 17 15 13 10 8 6 5 5 5 5 5 6 6 7 10 12 13 14 16 18 19 19 21 24 26 26 24 22 18 15 13 14 15 15 14 12 10 8 7 6 6 6 5 7 7 8 9 10 10 11 12 13 13 13 13 14 15 15 17 18 18
19 23 25 25 26 25 26 27 28 29 30 29 29 30 28 27 26 24 25 26 24 19 18 18 16 14 12 10 8 6 4 3 2 2 2 3 2 2 2 3 4 6 7 7 9 9 11 12 15 18 20 21 19 14 11 11 12 12 13 13 13 13 14 12 8 6 7 6 6 8 10 10 11 12 13 14 13 12 12 13 14 15 16 17 17
16 20 20 21 22 22 23 24 26 28 29 30 32 33 32 31 29 26 26 27 25 23 21 18 16 14 13 13 12 10 8 6 4 3 2 2 3 3 5 5 5 5 4 3 3 5 7 6 4 6 9 11 12 11 9 8 8 8 8 10 11 13 15 14 11 10 8 7 8 9 9 10 11 12 12 13 12 11 11 12 13 13 14 15 16
15 17 18 18 19 20 21 21 22 25 28 31 33 34 36 35 33 30 27 25 24 25 23 20 19 18 17 15 14 13 11 8 6 5 5 4 3 3 4 6 6 6 7 6 4 4 6 6 5 3 3 3 3 4 5 5 5 4 4 5 7 9 11 11 12 12 10 8 9 9 7 6 7 8 9 10 11 11 11 11 12 13 14 15 16
15 17 18 18 18 19 20 20 21 23 27 30 31 32 35 36 36 34 31 28 27 27 25 22 21 20 19 17 15 13 12 10 8 6 6 6 5 5 5 4 4 4 5 5 4 3 3 4 5 5 4 3 2 2 2 3 3 3 4 4 5 6 6 6 7 9 8 7 7 8 8 7 6 7 9 10 11 11 13 14 13 14 15 15 16
15 16 16 18 18 19 20 21 22 23 25 27 27 28 32 33 33 37 37 33 31 29 27 25 23 21 19 18 16 14 13 11 10 8 7 6 5 5 5 5 4 4 4 4 5 4 2 2 3 3 3 3 2 2 2 2 2 3 4 5 7 7 6 6 6 7 7 6 6 6 8 12 12 12 12 10 11 13 15 16 15 14 14 15 15
Wind_Direction
166 164 163 169 169 169 169 165 164 160 161 159 157 156 156 154 152 153 153 155 156 159 159 155 150 148 151 143 134 130 119 110 104 100 105 112 110 100 93 95 103 111 114 118 120 120 119 117 116 117 118 119 118 118 119 117 113 117 121 119 115 113 109 105 103 98 92 88 82 78 78 81 86 88 93 96 95 99 97 89 85 83 86 87 87
164 164 163 169 169 168 169 166 167 163 163 161 160 159 158 158 155 155 153 157 161 163 161 156 151 152 154 146 137 131 121 113 106 99 100 109 118 113 103 97 100 108 111 114 116 116 116 116 118 120 120 117 117 114 114 114 112 115 116 116 116 113 110 107 107 100 92 85 78 77 77 78 83 87 91 95 92 91 91 91 90 86 89 92 88
160 164 163 169 170 169 168 168 170 166 164 162 163 161 160 160 158 156 153 158 164 163 160 157 153 155 156 148 140 133 124 117 110 102 98 99 107 118 117 104 98 105 110 112 114 115 116 117 119 118 115 113 111 110 111 113 116 118 117 118 117 114 111 112 112 101 92 85 77 74 76 78 82 84 88 92 90 85 87 89 89 90 90 90 90
160 163 163 169 170 169 169 170 172 169 166 164 163 162 161 161 159 155 153 156 161 161 159 157 153 157 157 149 143 135 128 122 114 107 102 97 97 109 122 114 102 105 108 112 115 116 116 117 119 117 113 110 106 107 108 113 121 122 121 121 118 116 115 117 113 100 93 89 83 79 80 83 85 87 89 91 92 92 94 90 86 90 91 88 87
160 163 163 168 169 170 170 170 173 171 167 165 165 164 163 163 161 155 154 155 158 159 157 155 153 159 158 150 147 139 134 127 120 113 109 103 99 100 119 124 112 109 111 111 114 116 116 117 120 118 113 108 105 104 107 115 124 125 126 123 120 120 119 120 113 101 95 92 89 86 85 87 89 91 93 96 99 100 99 97 93 94 93 90 87
161 163 163 167 168 172 172 169 171 172 169 167 167 167 166 166 164 159 156 158 159 159 157 155 155 159 159 154 150 144 139 133 126 121 115 109 106 101 112 127 122 118 119 115 114 116 117 119 119 119 117 113 110 107 110 118 122 125 127 123 122 124 123 120 112 104 94 88 88 86 84 86 90 92 94 95 91 91 94 96 98 98 94 91 89
162 164 163 166 168 174 175 171 171 173 171 170 170 170 170 169 168 165 159 159 161 160 159 159 159 160 161 158 152 149 144 139 133 128 123 115 111 107 109 127 132 125 124 122 117 118 117 120 122 121 120 117 115 113 114 118 120 123 124 124 126 125 124 118 108 105 92 85 88 87 86 85 90 95 96 96 89 90 96 97 99 101 100 98 90
164 165 165 166 169 175 176 173 173 174 175 173 174 173 173 172 171 171 164 162 163 164 164 163 163 162 163 161 155 153 149 146 142 136 133 124 115 112 110 124 137 130 127 130 120 120 119 119 125 123 121 117 113 114 117 119 121 123 124 126 127 125 123 117 107 100 92 90 92 88 87 85 89 95 98 102 103 105 106 104 104 107 106 100 93
167 167 167 166 171 176 174 174 175 178 180 178 178 178 177 176 174 175 169 167 167 168 168 167 167 165 165 163 159 157 155 152 150 146 140 132 120 116 114 118 136 136 133 136 128 124 123 122 125 126 125 119 113 117 123 122 122 123 127 129 128 128 125 120 108 95 92 97 95 91 95 90 88 93 95 98 104 104 104 109 108 110 107 99 97
167 168 169 167 173 176 172 173 175 178 181 181 181 180 181 180 177 178 174 170 170 170 171 170 169 167 166 164 162 162 161 158 156 154 147 140 127 119 121 118 133 140 137 136 136 133 130 131 127 130 130 123 119 123 128 127 127 129 132 133 133 132 131 127 110 102 105 106 99 100 106 99 94 95 92 93 98 96 99 110 115 111 101 96 96
168 168 170 170 174 176 173 174 176 177 179 181 183 183 184 184 180 181 176 171 173 173 173 172 171 169 167 165 167 166 164 163 161 160 153 146 136 124 126 126 133 144 147 141 140 144 142 141 133 135 135 126 128 131 132 132 133 136 139 140 142 140 141 132 113 120 124 115 110 107 106 99 101 101 91 88 88 85 90 96 103 105 94 91 87
170 169 171 171 176 178 177 178 178 178 179 180 183 184 185 186 185 185 178 173 176 177 176 175 173 170 169 169 171 171 168 168 167 165 161 152 142 129 126 132 136 146 156 152 145 153 153 149 139 135 134 128 135 139 137 138 138 140 143 146 150 152 153 139 127 144 138 129 125 120 110 101 109 106 94 89 85 79 79 79 83 103 112 117 93
170 169 171 174 178 179 179 182 181 180 181 181 183 184 185 187 188 188 182 177 179 179 178 176 175 174 173 174 175 175 172 171 172 168 165 158 145 134 127 134 144 142 155 160 152 156 158 153 148 138 138 138 141 144 140 140 143 145 148 151 153 157 161 148 143 160 153 151 144 138 132 121 124 111 106 97 85 81 81 84 81 104 129 135 99
171 170 174 178 178 178 181 184 183 182 183 185 187 186 186 187 189 190 184 181 181 181 180 177 177 177 177 177 176 177 175 173 173 171 169 162 152 140 129 132 146 138 146 160 156 160 164 157 157 150 149 148 147 147 143 141 144 151 154 154 155 157 161 155 157 169 168 170 165 157 148 144 138 119 130 119 86 91 105 112 90 91 120 128 113
173 173 177 179 177 178 182 185 186 186 187 192 193 192 190 187 188 188 184 183 183 182 181 180 180 180 180 178 176 177 175 174 173 172 170 166 159 142 131 132 141 138 142 159 159 159 163 162 163 159 159 154 152 152 147 150 150 154 155 157 162 162 163 168 176 177 181 181 177 177 165 168 160 131 151 157 138 130 139 139 97 80 95 118 127
177 178 180 180 179 179 182 186 191 190 194 199 197 194 190 187 187 186 185 185 185 183 181 182 184 185 182 178 177 178 176 175 174 175 173 170 164 144 130 132 134 134 141 161 168 166 159 166 175 170 172 166 160 159 156 160 160 161 162 166 171 174 174 179 193 190 190 186 182 189 182 193 190 159 170 176 174 171 168 167 150 90 77 109 117
180 182 182 181 180 180 181 184 191 195 202 201 192 188 186 185 184 184 186 187 187 185 182 182 186 188 185 180 179 179 178 178 178 179 178 175 168 149 131 130 128 125 132 157 174 177 162 154 171 174 180 180 174 170 166 166 168 169 170 176 179 185 188 187 200 204 199 199 196 197 198 209 214 193 199 209 192 190 195 190 195 212 252 134 106
185 187 184 181 179 179 179 181 188 192 193 188 180 179 182 183 183 185 188 188 188 188 186 184 186 190 188 183 181 181 181 181 183 185 183 181 174 157 137 130 125 116 119 142 165 173 166 160 170 174 179 184 193 190 180 176 175 176 176 181 184 188 197 198 202 213 214 214 211 211 214 215 222 219 217 236 217 203 208 208 216 221 226 235 192
191 190 186 185 183 179 175 176 180 178 175 175 174 175 179 182 184 187 189 188 187 189 188 186 187 191 192 186 184 183 183 184 186 189 186 186 181 166 147 133 127 115 110 126 149 168 176 184 187 187 189 181 193 201 192 186 184 185 186 187 189 190 198 208 210 214 221 227 227 227 231 224 228 234 233 247 238 222 223 222 226 229 225 226 226
195 192 189 189 187 184 178 175 173 171 171 175 176 174 178 183 187 189 190 188 187 188 186 186 189 192 193 188 189 186 183 186 188 190 190 190 187 174 159 138 133 124 112 118 133 156 176 189 193 193 196 190 197 209 202 196 195 196 197 198 200 199 200 212 223 222 227 237 236 239 242 229 228 240 245 255 257 249 247 240 234 236 238 230 222
200 197 192 189 187 185 181 175 173 173 172 178 180 179 183 184 186 189 191 190 188 190 187 186 190 193 195 192 191 187 184 188 188 190 190 192 190 180 168 149 140 135 123 120 129 137 148 155 165 185 198 204 212 222 218 208 206 206 208 212 210 213 220 220 226 232 241 249 247 250 249 236 232 241 248 258 264 266 267 263 249 240 245 242 229
200 202 197 192 187 185 181 178 177 178 176 179 180 183 188 186 187 189 190 189 187 190 188 188 191 194 198 196 191 188 187 189 189 189 190 192 193 186 176 163 152 148 138 128 133 134 134 133 133 159 186 201 212 224 226 220 217 216 218 222 222 225 231 230 231 234 240 247 250 254 252 247 245 247 252 259 265 271 273 273 267 256 251 250 245
200 203 201 195 191 189 186 183 182 182 182 182 181 185 190 189 190 189 188 190 188 189 190 191 193 193 197 196 193 192 191 192 190 190 191 192 195 191 183 177 169 161 154 143 143 142 139 139 134 142 157 177 196 209 218 221 223 225 226 229 231 234 238 238 238 240 243 244 245 252 254 253 255 255 260 264 270 276 276 276 273 269 262 256 257
205 206 203 199 195 193 189 188 189 187 185 186 186 188 191 190 192 192 189 190 189 189 192 192 192 194 197 195 195 195 194 195 192 192 193 192 195 195 191 192 191 183 172 163 168 172 163 163 160 156 154 162 181 195 206 216 222 226 228 231 234 237 240 242 242 243 248 250 248 249 252 253 256 260 266 272 277 282 285 285 281 276 272 266 264
207 208 206 203 199 197 194 191 195 192 188 187 188 190 192 192 193 195 193 192 191 189 192 194 193 194 195 194 197 200 199 195 192 195 194 190 193 195 195 194 194 199 188 179 187 193 187 188 193 182 184 194 195 199 199 208 222 226 230 233 236 240 241 241 243 244 247 253 253 250 249 252 255 259 266 272 278 285 291 292 290 288 283 278 273
210 211 210 207 203 203 201 196 196 194 193 192 189 191 193 193 195 196 196 196 194 194 195 197 197 197 196 196 201 208 209 203 199 198 191 189 197 196 194 193 194 202 197 192 197 198 195 195 201 199 201 210 209 211 209 211 222 229 236 238 240 243 244 244 243 245 247 250 253 253 251 253 256 259 264 268 274 282 288 291 293 293 291 288 284
212 213 213 212 209 208 203 199 199 196 196 197 192 192 194 196 200 201 201 199 199 200 199 200 200 199 201 201 203 209 214 210 206 203 195 193 199 199 198 199 199 202 201 200 203 202 203 206 208 210 213 220 224 226 228 229 232 239 244 244 245 245 246 247 246 246 248 249 255 259 257 257 260 263 267 269 274 279 284 288 290 291 291 292 295
216 214 212 212 215 215 208 203 204 201 199 198 195 195 197 198 201 203 205 204 202 203 203 203 203 202 203 206 206 209 211 208 205 205 200 199 203 205 203 205 208 208 208 204 208 212 211 216 219 221 226 231 236 239 243 244 246 251 253 255 254 254 252 250 250 249 250 251 256 261 260 260 263 266 270 273 275 278 280 283 286 288 288 290 293
220 218 213 211 215 218 213 208 207 205 203 200 199 201 202 203 204 203 206 207 205 204 207 207 208 208 206 208 209 208 210 209 208 207 205 206 209 208 205 210 211 208 212 209 208 215 217 223 226 230 235 239 244 246 251 251 252 255 256 260 260 264 268 265 262 259 257 256 256 260 260 260 263 267 270 274 277 279 280 281 283 284 285 287 288
221 220 218 215 216 218 213 209 209 209 208 205 203 203 205 206 208 208 208 211 211 208 209 212 213 212 209 211 212 210 209 208 209 209 208 207 208 210 212 214 214 212 219 225 223 221 223 230 231 237 243 247 251 251 255 257 257 258 259 262 262 267 272 272 268 265 263 264 263 264 263 260 262 268 272 276 279 280 280 280 281 283 285 286 287
226 224 224 221 219 217 211 209 210 208 208 207 206 208 209 208 209 211 212 213 216 213 212 216 217 215 213 213 215 214 213 213 215 212 209 212 213 213 213 214 221 223 228 235 239 237 232 233 235 238 245 250 253 254 256 259 261 261 265 268 267 265 268 269 268 268 266 268 270 272 272 266 264 268 273 277 280 280 280 281 280 281 283 284 286
225 227 229 226 224 220 216 216 213 209 209 211 212 213 214 212 210 212 215 216 217 217 217 219 220 218 215 214 215 214 215 218 219 215 211 217 217 212 213 220 226 227 230 236 242 245 242 241 242 241 244 249 251 253 254 257 263 265 266 270 268 264 268 269 268 270 270 270 273 274 275 273 270 268 269 274 279 284 285 285 285 285 285 287 289
224 228 227 228 230 227 224 224 220 215 215 217 215 215 217 217 215 214 217 218 216 216 216 218 218 218 216 215 217 217 217 218 218 216 213 215 215 214 220 227 228 228 230 232 236 244 248 249 251 249 247 246 246 250 251 255 264 268 268 268 267 266 270 273 271 270 272 273 272 270 270 271 274 273 272 275 278 284 287 288 290 290 290 290 290
230 229 227 228 229 228 228 227 226 222 220 221 218 218 221 220 218 218 219 219 216 214 214 215 215 214 214 215 216 218 219 218 219 221 218 215 211 214 221 226 230 230 229 230 234 243 248 248 250 250 246 243 244 247 250 255 262 268 271 266 265 264 265 275 282 279 277 277 271 270 271 270 272 275 280 283 282 283 283 285 286 287 288 288 289
236 233 230 230 227 226 227 224 224 224 221 223 223 220 220 218 217 217 216 217 216 215 215 215 214 212 212 215 216 220 222 221 222 224 223 219 215 219 223 225 230 228 228 231 235 242 245 243 243 243 242 242 242 245 250 255 260 264 267 263 262 260 257 271 286 288 286 284 281 282 280 278 277 277 281 283 284 287 287 286 285 285 285 285 285
237 236 232 227 228 230 228 223 222 227 227 225 224 220 217 212 212 215 215 216 215 216 216 217 216 213 213 216 219 223 223 221 224 225 225 221 220 225 223 219 225 228 230 232 233 236 238 240 238 233 235 240 242 245 251 257 261 264 263 257 256 257 256 268 280 282 282 284 284 287 286 284 284 282 282 283 284 289 292 290 288 289 289 289 288
238 236 234 230 231 233 231 227 226 230 233 231 226 219 217 213 210 210 211 215 217 216 216 218 219 218 218 218 221 226 226 224 226 228 229 227 224 226 224 222 228 233 235 233 232 232 233 235 235 230 229 234 241 245 249 253 258 263 264 260 259 259 260 269 276 273 272 274 275 277 280 282 285 286 285 285 287 290 292 290 287 288 290 291 292
240 235 233 232 230 226 225 225 230 233 233 231 228 221 220 218 216 215 211 214 218 217 216 218 219 218 219 220 221 227 231 229 228 228 232 232 229 231 234 234 235 237 238 234 232 231 231 230 229 229 228 229 235 239 244 249 255 261 261 261 261 262 264 267 268 268 269 270 270 272 274 276 279 282 285 285 286 288 290 290 288 288 288 289 290
244 236 228 225 223 220 219 221 231 236 231 229 229 227 223 221 221 219 216 217 217 216 218 219 220 219 219 221 221 225 227 226 225 226 229 230 233 238 238 235 234 235 237 236 234 231 229 227 225 226 228 229 232 237 245 253 256 259 259 263 266 265 264 262 260 266 272 272 271 272 273 274 275 277 282 284 284 287 291 293 292 291 291 292 293
249 243 232 226 223 222 223 223 228 231 229 226 225 224 221 220 221 220 218 219 217 215 217 220 223 224 223 222 224 225 225 226 224 223 225 225 227 233 231 228 231 234 235 234 230 225 222 222 223 224 225 228 234 242 248 252 257 260 262 264 267 266 262 258 259 266 274 275 272 272 272 273 274 276 281 284 285 289 293 294 295 294 296 300 301
249 247 241 236 232 228 230 229 226 225 224 223 222 220 217 215 217 219 219 220 221 219 218 222 225 226 227 227 226 228 228 228 227 225 229 231 231 233 232 230 232 233 232 229 224 222 221 221 222 224 223 224 231 236 237 242 251 260 263 260 263 267 262 257 258 259 264 268 266 267 269 268 271 274 279 281 281 287 292 295 295 294 297 300 304
243 246 245 243 239 234 234 234 231 227 223 222 221 220 219 215 214 215 215 215 218 219 217 217 220 222 226 228 228 230 229 226 225 225 228 231 231 232 232 231 231 231 230 228 224 222 222 220 219 221 223 225 228 227 225 228 238 247 257 264 267 269 256 245 249 251 253 258 258 257 261 264 267 268 271 273 274 281 291 293 292 291 293 296 299
238 244 245 245 241 235 235 234 234 233 229 223 219 219 220 216 213 211 209 207 206 209 209 208 209 211 214 219 221 224 224 223 222 224 226 227 229 231 231 230 227 228 230 230 227 224 223 221 219 219 219 222 227 229 226 222 227 236 246 264 276 283 260 230 234 240 237 242 251 253 256 261 265 263 260 261 266 277 287 291 290 288 290 291 294
233 237 240 241 240 237 235 233 233 232 229 224 217 217 216 211 210 208 205 202 194 191 193 191 191 190 190 195 198 201 206 211 214 216 218 222 228 231 232 231 225 225 228 228 225 221 220 221 220 220 219 217 220 226 225 222 223 226 237 255 262 277 272 243 246 254 239 239 241 237 247 257 258 256 253 254 264 273 278 285 289 288 288 290 292
228 231 234 237 239 238 236 234 233 230 226 222 214 211 209 202 194 185 179 170 160 162 163 159 164 167 161 157 161 168 174 181 190 198 203 208 214 220 223 224 224 226 228 229 229 228 227 224 221 221 221 219 220 220 215 218 225 226 231 248 262 265 266 277 302 279 237 232 238 229 235 249 251 254 256 258 265 270 271 278 285 287 289 291 290
227 230 232 234 235 236 233 230 228 225 223 219 210 206 203 195 182 167 161 152 144 149 152 149 149 152 152 145 144 148 155 168 175 177 188 191 187 195 204 207 212 218 221 226 231 235 236 230 226 225 222 219 222 220 212 213 221 225 229 242 259 269 278 291 299 290 246 226 232 236 239 244 249 255 260 262 265 269 267 271 281 288 289 290 289
229 230 231 229 228 229 229 226 222 219 218 213 205 200 194 189 183 175 170 162 152 148 150 150 147 145 142 135 137 144 147 171 191 183 212 234 222 205 204 193 197 205 208 211 218 236 245 237 230 226 219 215 215 214 213 211 214 224 233 244 258 269 276 275 273 288 287 265 247 249 252 251 251 254 258 262 265 267 266 271 282 288 288 288 288
228 230 230 228 223 222 222 219 215 213 211 204 198 196 190 185 181 174 167 164 157 151 149 147 145 145 143 136 135 138 141 148 148 143 171 232 250 253 261 274 287 289 293 285 254 257 271 271 243 220 214 211 207 205 212 215 218 229 237 247 263 276 274 265 264 275 279 280 276 266 260 252 248 251 259 264 266 268 270 274 282 287 287 286 286
225 225 226 226 221 216 213 209 207 205 200 194 190 190 189 185 179 171 161 159 156 151 148 146 142 142 143 142 141 140 140 141 138 136 142 154 167 183 215 242 260 275 284 286 276 262 269 278 278 260 241 217 208 214 221 228 239 246 247 252 267 281 275 265 272 278 273 277 285 284 283 268 253 264 273 272 272 274 275 277 281 287 288 285 284
220 218 217 218 215 209 203 197 196 195 191 187 184 184 183 179 176 171 160 154 152 148 146 145 145 144 141 140 142 141 140 140 140 142 144 142 142 145 154 173 196 220 230 229 229 232 249 269 283 293 290 265 257 274 258 252 255 253 260 268 270 282 288 281 285 294 295 293 294 299 308 310 301 298 294 282 277 278 282 285 286 287 287 285 285
210 208 206 207 205 200 193 188 187 187 184 184 185 184 179 174 172 171 165 158 157 153 148 148 149 148 144 142 142 141 138 138 140 142 141 137 132 134 138 141 147 162 178 191 212 230 245 258 257 265 277 275 269 274 276 272 263 251 254 262 265 267 271 273 282 299 307 307 308 309 308 307 300 295 294 287 281 281 284 286 287 286 287 287 288